{"data":{"norad_id":47278,"epoch":"2026-05-25T02:46:13.316160Z","epoch_age_seconds":65241,"freshness":"FRESH","line1":"1 47278U 20100W   26145.11543190  .00000381  00000+0  10234-2 0  9996","line2":"2 47278  87.8952 355.2619 0001772  84.5375 275.5956 13.12441423261552","mean_motion":13.12441423,"eccentricity":0.0001772,"inclination_deg":87.8952,"raan_deg":355.2619,"arg_perigee_deg":84.5375,"mean_anomaly_deg":275.5956,"bstar":0.0010234,"rev_number":26155,"period_min":109.71918249185,"perigee_km":1212.3840937973,"apogee_km":1215.0746512398,"semimajor_km":7591.8663725186,"source":"CELESTRAK","updated_at":"2026-05-25T13:38:22.383499Z"}}